• Em Portugal
  • Lista de países
  • Para 7 dias
  • Temperatura da água
  • Mapas de satélite
  • Mapa do tempo
  • Widgets de tempo
  • user-avatar
    Iniciar Sessão

    Previsão horária em Waczos

    Hoje, 16 Agosto, Quinta-feira

    Tempo Temperatura Precipitação Vento Pressão Humidade
    00:00 +16°C° 0 mm 1 m/s 751 mmHg 88%
    01:00 +15°C° 0 mm 1 m/s 751 mmHg 90%
    02:00 +15°C° 0 mm 1 m/s 751 mmHg 91%
    03:00 +15°C° 0 mm 1 m/s 751 mmHg 91%
    04:00 +15°C° 0 mm 1 m/s 751 mmHg 92%
    05:00 +16°C° 0 mm 1 m/s 752 mmHg 87%
    06:00 +19°C° 0 mm 1 m/s 752 mmHg 81%
    07:00 +20°C° 0 mm 1 m/s 752 mmHg 76%
    08:00 +22°C° 0 mm 1 m/s 752 mmHg 69%
    09:00 +23°C° 0 mm 1 m/s 752 mmHg 62%
    10:00 +25°C° 0 mm 1 m/s 752 mmHg 56%
    11:00 +26°C° 0,1 mm 1 m/s 752 mmHg 53%
    12:00 +26°C° 0,1 mm 1 m/s 752 mmHg 50%
    13:00 +27°C° 0,1 mm 1 m/s 752 mmHg 48%
    14:00 +27°C° 0 mm 1 m/s 752 mmHg 49%
    15:00 +27°C° 0 mm 1 m/s 751 mmHg 50%
    16:00 +26°C° 0 mm 1 m/s 751 mmHg 51%
    17:00 +25°C° 0 mm 1 m/s 751 mmHg 54%
    18:00 +24°C° 0 mm 1 m/s 751 mmHg 57%
    19:00 +23°C° 0 mm 1 m/s 750 mmHg 61%
    20:00 +23°C° 0 mm 1 m/s 751 mmHg 62%
    21:00 +21°C° 0 mm 2 m/s 751 mmHg 63%
    22:00 +21°C° 0 mm 2 m/s 751 mmHg 64%
    23:00 +20°C° 0 mm 2 m/s 751 mmHg 65%

    Amanhã, 17 Agosto, Sexta-feira

    Tempo Temperatura Precipitação Vento Pressão Humidade
    00:00 +20°C° 0 mm 2 m/s 751 mmHg 67%
    01:00 +19°C° 0 mm 2 m/s 751 mmHg 68%
    02:00 +19°C° 0 mm 2 m/s 750 mmHg 70%
    03:00 +18°C° 0 mm 2 m/s 750 mmHg 71%
    04:00 +18°C° 0 mm 2 m/s 750 mmHg 73%
    05:00 +19°C° 0 mm 2 m/s 750 mmHg 71%
    06:00 +20°C° 0 mm 2 m/s 750 mmHg 68%
    07:00 +21°C° 0 mm 2 m/s 750 mmHg 66%
    08:00 +24°C° 0 mm 3 m/s 750 mmHg 60%
    09:00 +25°C° 0 mm 3 m/s 751 mmHg 53%
    10:00 +27°C° 0 mm 3 m/s 751 mmHg 47%
    11:00 +27°C° 0 mm 3 m/s 750 mmHg 46%
    12:00 +27°C° 0 mm 3 m/s 750 mmHg 45%
    13:00 +28°C° 0 mm 3 m/s 750 mmHg 45%
    14:00 +28°C° 0 mm 2 m/s 749 mmHg 45%
    15:00 +28°C° 0 mm 2 m/s 749 mmHg 46%
    16:00 +28°C° 0 mm 2 m/s 749 mmHg 47%
    17:00 +27°C° 0 mm 2 m/s 749 mmHg 51%
    18:00 +26°C° 0 mm 2 m/s 749 mmHg 55%
    19:00 +24°C° 0 mm 2 m/s 749 mmHg 60%
    20:00 +24°C° 0 mm 2 m/s 749 mmHg 62%
    21:00 +23°C° 0 mm 2 m/s 749 mmHg 64%
    22:00 +23°C° 0 mm 2 m/s 749 mmHg 67%
    23:00 +21°C° 0 mm 2 m/s 749 mmHg 69%

    Depois de amanhã, 18 Agosto, Sábado

    Tempo Temperatura Precipitação Vento Pressão Humidade
    00:00 +20°C° 0 mm 2 m/s 749 mmHg 71%
    01:00 +20°C° 0 mm 2 m/s 749 mmHg 73%
    02:00 +21°C° 0,2 mm 1 m/s 749 mmHg 75%
    03:00 +20°C° 0,2 mm 1 m/s 749 mmHg 78%
    04:00 +20°C° 0,2 mm 1 m/s 749 mmHg 80%
    05:00 +21°C° 0,1 mm 1 m/s 749 mmHg 78%
    06:00 +22°C° 0,1 mm 1 m/s 750 mmHg 76%
    07:00 +22°C° 0,1 mm 1 m/s 750 mmHg 74%
    08:00 +23°C° 0,2 mm 1 m/s 750 mmHg 73%
    09:00 +24°C° 0,2 mm 1 m/s 750 mmHg 71%
    10:00 +24°C° 0,2 mm 2 m/s 750 mmHg 70%
    11:00 +25°C° 0,5 mm 2 m/s 751 mmHg 67%
    12:00 +26°C° 0,5 mm 2 m/s 751 mmHg 64%
    13:00 +26°C° 0,5 mm 3 m/s 751 mmHg 61%
    14:00 +26°C° 0,4 mm 3 m/s 751 mmHg 62%
    15:00 +26°C° 0,4 mm 3 m/s 751 mmHg 64%
    16:00 +25°C° 0,4 mm 4 m/s 751 mmHg 65%
    17:00 +24°C° 0,2 mm 3 m/s 751 mmHg 69%
    18:00 +21°C° 0,2 mm 3 m/s 751 mmHg 73%
    19:00 +20°C° 0,2 mm 3 m/s 751 mmHg 77%
    20:00 +19°C° 0 mm 2 m/s 752 mmHg 78%
    21:00 +17°C° 0 mm 2 m/s 752 mmHg 80%
    22:00 +16°C° 0 mm 2 m/s 752 mmHg 82%
    23:00 +16°C° 0 mm 2 m/s 752 mmHg 82%

    19 Agosto, Domingo

    Tempo Temperatura Precipitação Vento Pressão Humidade
    00:00 +15°C° 0 mm 2 m/s 752 mmHg 81%
    01:00 +15°C° 0 mm 2 m/s 752 mmHg 80%
    02:00 +15°C° 0 mm 2 m/s 752 mmHg 79%
    03:00 +15°C° 0 mm 2 m/s 752 mmHg 78%
    04:00 +15°C° 0 mm 2 m/s 752 mmHg 77%
    05:00 +16°C° 0 mm 2 m/s 753 mmHg 75%
    06:00 +17°C° 0 mm 2 m/s 753 mmHg 72%
    07:00 +18°C° 0 mm 3 m/s 753 mmHg 69%
    08:00 +20°C° 0 mm 3 m/s 753 mmHg 65%
    09:00 +21°C° 0 mm 3 m/s 753 mmHg 60%
    10:00 +23°C° 0 mm 4 m/s 753 mmHg 56%
    11:00 +23°C° 0 mm 4 m/s 753 mmHg 56%
    12:00 +25°C° 0 mm 4 m/s 753 mmHg 55%
    13:00 +25°C° 0 mm 4 m/s 753 mmHg 55%
    14:00 +25°C° 0 mm 4 m/s 753 mmHg 56%
    15:00 +25°C° 0 mm 4 m/s 753 mmHg 57%
    16:00 +25°C° 0 mm 4 m/s 752 mmHg 57%
    17:00 +24°C° 0 mm 3 m/s 752 mmHg 63%
    18:00 +21°C° 0 mm 2 m/s 752 mmHg 69%
    19:00 +20°C° 0 mm 2 m/s 752 mmHg 75%
    20:00 +20°C° 0 mm 1 m/s 752 mmHg 79%
    21:00 +19°C° 0 mm 1 m/s 752 mmHg 82%
    22:00 +18°C° 0 mm 1 m/s 752 mmHg 86%
    23:00 +18°C° 0 mm 1 m/s 752 mmHg 86%

    20 Agosto, Segunda-feira

    Tempo Temperatura Precipitação Vento Pressão Humidade
    00:00 +18°C° 0 mm 1 m/s 752 mmHg 86%
    01:00 +18°C° 0 mm 1 m/s 752 mmHg 86%
    02:00 +18°C° 0 mm 1 m/s 752 mmHg 87%
    03:00 +17°C° 0 mm 2 m/s 751 mmHg 87%
    04:00 +17°C° 0 mm 2 m/s 751 mmHg 88%
    05:00 +18°C° 0 mm 2 m/s 751 mmHg 82%
    06:00 +19°C° 0 mm 3 m/s 751 mmHg 77%
    07:00 +20°C° 0 mm 3 m/s 751 mmHg 72%
    08:00 +22°C° 0 mm 4 m/s 751 mmHg 65%
    09:00 +25°C° 0 mm 4 m/s 751 mmHg 57%
    10:00 +27°C° 0 mm 5 m/s 751 mmHg 50%
    11:00 +28°C° 0 mm 5 m/s 750 mmHg 48%
    12:00 +28°C° 0 mm 5 m/s 750 mmHg 47%
    13:00 +29°C° 0 mm 5 m/s 750 mmHg 46%
    14:00 +28°C° 0,1 mm 4 m/s 749 mmHg 49%
    15:00 +27°C° 0,1 mm 4 m/s 749 mmHg 53%
    16:00 +27°C° 0,1 mm 3 m/s 749 mmHg 57%
    17:00 +25°C° 0 mm 3 m/s 749 mmHg 63%
    18:00 +24°C° 0 mm 3 m/s 749 mmHg 68%
    19:00 +23°C° 0 mm 2 m/s 749 mmHg 74%
    20:00 +21°C° 0 mm 2 m/s 749 mmHg 78%
    21:00 +20°C° 0 mm 2 m/s 749 mmHg 82%
    22:00 +19°C° 0 mm 2 m/s 749 mmHg 86%
    23:00 +19°C° 0 mm 2 m/s 749 mmHg 87%

    21 Agosto, Terça-feira

    Tempo Temperatura Precipitação Vento Pressão Humidade
    00:00 +19°C° 0 mm 2 m/s 749 mmHg 89%
    01:00 +18°C° 0 mm 2 m/s 749 mmHg 90%
    02:00 +18°C° 0 mm 2 m/s 749 mmHg 91%
    03:00 +18°C° 0 mm 2 m/s 749 mmHg 91%
    04:00 +18°C° 0 mm 2 m/s 749 mmHg 92%
    05:00 +19°C° 0 mm 3 m/s 749 mmHg 88%
    06:00 +20°C° 0 mm 3 m/s 749 mmHg 83%
    07:00 +21°C° 0 mm 4 m/s 749 mmHg 78%
    08:00 +22°C° 0 mm 4 m/s 750 mmHg 72%
    09:00 +23°C° 0 mm 4 m/s 750 mmHg 65%
    10:00 +25°C° 0 mm 5 m/s 750 mmHg 58%
    11:00 +26°C° 0 mm 5 m/s 750 mmHg 55%
    12:00 +26°C° 0 mm 4 m/s 750 mmHg 53%
    13:00 +27°C° 0 mm 4 m/s 749 mmHg 50%
    14:00 +26°C° 0,1 mm 4 m/s 749 mmHg 53%
    15:00 +26°C° 0,1 mm 4 m/s 749 mmHg 56%
    16:00 +26°C° 0,1 mm 3 m/s 749 mmHg 59%
    17:00 +25°C° 0,2 mm 3 m/s 749 mmHg 64%
    18:00 +23°C° 0,2 mm 2 m/s 748 mmHg 70%
    19:00 +22°C° 0,2 mm 1 m/s 748 mmHg 76%
    20:00 +21°C° 0,2 mm 2 m/s 748 mmHg 79%
    21:00 +20°C° 0,2 mm 2 m/s 748 mmHg 82%
    22:00 +20°C° 0,2 mm 2 m/s 748 mmHg 84%
    23:00 +19°C° 0,1 mm 2 m/s 748 mmHg 86%
    Mostrar mais